Location: ???? ?????????
(31.1304°N, 31.7111°E)
Time: 19:57:57
(UTC+00:00)

Vanguard 2 - Visible Passes

Search period start: 28 February 2021 00:00
Search period end: 10 March 2021 00:00
Orbit: 552 x 2938 km, 32.9° (Epoch: 28 February)

Date Brightness Start Highest point End Pass type
(mag) Time Alt. Az. Time Alt. Az. Time Alt. Az.
28 Feb 10.2 01:12:32 50° S 01:16:07 58° SSE 01:33:27 10° ENE visible
28 Feb 10.4 03:13:56 16° WSW 03:28:51 89° SSE 03:46:19 10° E visible
28 Feb 11.1 23:27:59 26° ESE 23:27:59 26° ESE 23:36:35 10° E visible
01 Mar 10.1 01:29:23 53° SSW 01:33:52 68° SSE 01:51:41 10° ENE visible
01 Mar 10.4 03:30:47 12° W 03:47:07 87° N 04:04:27 10° E visible
01 Mar 10.8 23:44:46 34° ESE 23:44:46 34° ESE 23:55:31 10° E visible
02 Mar 10.0 01:46:09 50° SW 01:51:46 77° SSE 02:09:53 10° ENE visible
02 Mar 10.5 03:48:21 10° W 04:05:26 84° N 04:22:35 10° E visible
03 Mar 10.5 00:01:28 44° ESE 00:01:28 44° ESE 00:14:06 10° ENE visible
03 Mar 10.1 02:02:52 44° WSW 02:09:50 85° SSE 02:28:05 10° ENE visible
04 Mar 10.2 00:18:08 55° ESE 00:18:08 55° ESE 00:32:29 10° ENE visible
04 Mar 10.2 02:19:32 36° WSW 02:28:00 89° NNW 02:46:16 10° E visible
04 Mar 11.5 22:33:22 14° E 22:33:22 14° E 22:35:23 10° E visible
05 Mar 9.9 00:34:45 68° SE 00:34:45 68° SE 00:50:45 10° ENE visible
05 Mar 10.2 02:36:08 29° W 02:46:15 85° N 03:04:30 10° E visible
05 Mar 11.3 22:49:57 20° E 22:49:57 20° E 22:54:15 10° E visible
06 Mar 9.7 00:51:20 80° SSE 00:51:23 80° SSE 01:09:00 10° ENE visible
06 Mar 10.3 02:52:42 23° W 03:04:34 84° N 03:22:45 10° E visible
06 Mar 11.0 23:06:30 26° E 23:06:30 26° E 23:12:48 10° ENE visible
07 Mar 9.6 01:07:52 77° WSW 01:09:25 87° SSE 01:27:15 10° ENE visible
07 Mar 10.4 03:09:15 17° W 03:22:53 85° N 03:40:59 10° E visible
07 Mar 10.8 23:23:02 34° E 23:23:02 34° E 23:31:10 10° ENE visible
08 Mar 9.7 01:24:25 65° W 01:27:33 87° N 01:45:31 10° E visible
08 Mar 10.4 03:25:47 11° W 03:41:09 88° N 03:59:10 10° ESE visible
08 Mar 10.5 23:39:34 42° E 23:39:34 42° E 23:49:26 10° ENE visible
09 Mar 9.8 01:40:56 52° W 01:45:46 84° N 02:03:50 10° E visible
09 Mar 10.5 03:43:26 10° WNW 03:59:21 87° SSW 04:17:15 10° ESE visible
